Regional Weather Roundup
Issued by NWS

Home | Current Version | Previous Version | Text Only | Print | Product List | Glossary Off
Versions: 1 2 3 4 5 6 7 8 9 10 11 12 13 14 15 16 17 18 19 20 21 22 23 24 25 26 27 28 29 30 31 32 33 34 35 36 37 38 39 40 41 42 43 44 45 46 47 48 49 50

000
ASUS44 KMEG 300710
RWRTN
TENNESSEE HOURLY STATE WEATHER ROUNDUP
NATIONAL WEATHER SERVICE MEMPHIS TN
200 AM CDT SAT APR 30 2016

TNZ002-004-019-021-049-052-054-088>092-300800-
WEST TENNESSEE

CITY           SKY/WX    TMP DP  RH WIND       PRES   REMARKS
MEMPHIS INTL   CLOUDY    66  62  87 SE6       29.82F
NWS MEMPHIS      N/A     63 N/A N/A MISG        N/A
JACKSON        CLOUDY    62  60  93 E7        29.86F
DYERSBURG      CLOUDY    61  59  94 SE8G24      N/A  THUNDER
UNION CITY     MOCLDY    61  61 100 CALM      29.87F
LEXINGTON      MOCLDY    61  61 100 CALM      29.88F
$$

TNZ008-025-027-028-033-062-065-066-300800-
NORTH MIDDLE TENNESSEE

CITY           SKY/WX    TMP DP  RH WIND       PRES   REMARKS
NASHVILLE      CLOUDY    65  60  84 CALM      29.91F
CLARKSVILLE    CLOUDY    62  58  86 E5        29.92S
SMYRNA         PTCLDY    64  61  90 CALM      29.92F
COOKEVILLE     PTCLDY    59  57  94 CALM      29.92F
CROSSVILLE     PTCLDY    68  53  58 CALM      29.97F
$$

TNZ061-075-076-078-094-096-097-300800-
SOUTH MIDDLE TENNESSEE

CITY           SKY/WX    TMP DP  RH WIND       PRES   REMARKS
FAYETTEVILLE   CLEAR     64  57  77 S7        29.90F
TULLAHOMA      MOCLDY    59  59 100 CALM      29.93S
WINCHESTER     MOCLDY    64  55  72 CALM      29.92R
MCMINNVILLE    PTCLDY    61  59  94 N3        29.93S
COLUMBIA         N/A    N/A N/A N/A CALM      29.90R
SHELBYVILLE    CLOUDY    63  61  94 N3        29.92S
$$

TNZ017-018-042-046-047-300800-
NORTHEAST TENNESSEE

CITY           SKY/WX    TMP DP  RH WIND       PRES   REMARKS
TRI CITIES     MOCLDY    58  54  86 CALM      30.01F
$$

TNZ012-013-036-069-073-074-300800-
CENTRAL EAST TENNESSEE

CITY           SKY/WX    TMP DP  RH WIND       PRES   REMARKS
KNOXVILLE      CLOUDY    62  56  80 NE6       29.94F
OAK RIDGE      CLOUDY    64  55  72 CALM      29.97F
$$

TNZ083-085-099-300800-
SOUTHEAST TENNESSEE

CITY           SKY/WX    TMP DP  RH WIND       PRES   REMARKS
CHATTANOOGA    CLOUDY    66  57  72 CALM      29.93F
$$

SKY/WX REPORTED AS FAIR MEANS FEW OR NO CLOUDS BELOW
12 THOUSAND FEET.




USA.gov is the U.S. government's official web portal to all federal, state and local government web resources and services.